owner,sensor,date,latitude,longitude,air_temperature,qcFlag 
WAVCIS,ioos:station:WAVCIS:CSI15:1,2008-03-01T00:00:00Z,28.8332,-90.8320,19.86,11111222 
WAVCIS,ioos:station:WAVCIS:CSI15:1,2008-03-01T01:00:00Z,28.8332,-90.8320,20.53,11111222 
WAVCIS,ioos:station:WAVCIS:CSI15:1,2008-03-01T02:00:00Z,28.8332,-90.8320,23.16,11111222 
WAVCIS,ioos:station:WAVCIS:CSI15:1,2008-03-01T03:00:00Z,28.8332,-90.8320,24.77,11111222 
WAVCIS,ioos:station:WAVCIS:CSI15:1,2008-03-01T04:00:00Z,28.8332,-90.8320,20.81,11111222 
WAVCIS,ioos:station:WAVCIS:CSI15:1,2008-03-01T05:00:00Z,28.8332,-90.8320,21.98,11111222 
WAVCIS,ioos:station:WAVCIS:CSI15:1,2008-03-01T06:00:00Z,28.8332,-90.8320,26.02,11111222 
WAVCIS,ioos:station:WAVCIS:CSI15:1,2008-03-01T07:00:00Z,28.8332,-90.8320,23.86,11111222 
WAVCIS,ioos:station:WAVCIS:CSI15:1,2008-03-01T08:00:00Z,28.8332,-90.8320,22.03,11111222 
WAVCIS,ioos:station:WAVCIS:CSI15:1,2008-03-01T09:00:00Z,28.8332,-90.8320,20.84,11111222 
WAVCIS,ioos:station:WAVCIS:CSI15:1,2008-03-01T10:00:00Z,28.8332,-90.8320,20.57,11111222 
WAVCIS,ioos:station:WAVCIS:CSI15:1,2008-03-01T11:00:00Z,28.8332,-90.8320,20.5,11111222 
WAVCIS,ioos:station:WAVCIS:CSI15:1,2008-03-01T12:00:00Z,28.8332,-90.8320,20.5,11111222 
WAVCIS,ioos:station:WAVCIS:CSI15:1,2008-03-01T13:00:00Z,28.8332,-90.8320,20.74,11111222 
WAVCIS,ioos:station:WAVCIS:CSI15:1,2008-03-01T14:00:00Z,28.8332,-90.8320,21.46,11111222 
WAVCIS,ioos:station:WAVCIS:CSI15:1,2008-03-01T15:00:00Z,28.8332,-90.8320,21.1,11111222 
WAVCIS,ioos:station:WAVCIS:CSI15:1,2008-03-01T16:00:00Z,28.8332,-90.8320,20.67,11111222 
WAVCIS,ioos:station:WAVCIS:CSI15:1,2008-03-01T17:00:00Z,28.8332,-90.8320,20.76,11111222 
WAVCIS,ioos:station:WAVCIS:CSI15:1,2008-03-01T18:00:00Z,28.8332,-90.8320,20.78,11111222 
WAVCIS,ioos:station:WAVCIS:CSI15:1,2008-03-01T19:00:00Z,28.8332,-90.8320,21.09,11111222 
WAVCIS,ioos:station:WAVCIS:CSI15:1,2008-03-01T20:00:00Z,28.8332,-90.8320,21.37,11111222 
WAVCIS,ioos:station:WAVCIS:CSI15:1,2008-03-01T21:00:00Z,28.8332,-90.8320,21.96,11111222 
WAVCIS,ioos:station:WAVCIS:CSI15:1,2008-03-01T22:00:00Z,28.8332,-90.8320,21.72,11111222 
WAVCIS,ioos:station:WAVCIS:CSI15:1,2008-03-01T23:00:00Z,28.8332,-90.8320,21.68,11111222 
WAVCIS,ioos:station:WAVCIS:CSI15:1,2008-03-02T00:00:00Z,28.8332,-90.8320,20.66,11111222 
WAVCIS,ioos:station:WAVCIS:CSI15:1,2008-03-02T01:00:00Z,28.8332,-90.8320,20.65,11111222 
WAVCIS,ioos:station:WAVCIS:CSI15:1,2008-03-02T02:00:00Z,28.8332,-90.8320,20.48,11111222 
WAVCIS,ioos:station:WAVCIS:CSI15:1,2008-03-02T03:00:00Z,28.8332,-90.8320,20.66,11111222 
WAVCIS,ioos:station:WAVCIS:CSI15:1,2008-03-02T04:00:00Z,28.8332,-90.8320,20.47,11111222 
WAVCIS,ioos:station:WAVCIS:CSI15:1,2008-03-02T05:00:00Z,28.8332,-90.8320,21.78,11111222 
WAVCIS,ioos:station:WAVCIS:CSI15:1,2008-03-02T06:00:00Z,28.8332,-90.8320,20.96,11111222 
WAVCIS,ioos:station:WAVCIS:CSI15:1,2008-03-02T07:00:00Z,28.8332,-90.8320,20.9,11111222 
WAVCIS,ioos:station:WAVCIS:CSI15:1,2008-03-02T08:00:00Z,28.8332,-90.8320,20.81,11111222 
WAVCIS,ioos:station:WAVCIS:CSI15:1,2008-03-02T09:00:00Z,28.8332,-90.8320,22.36,11111222 
WAVCIS,ioos:station:WAVCIS:CSI15:1,2008-03-02T10:00:00Z,28.8332,-90.8320,24.44,11111222 
WAVCIS,ioos:station:WAVCIS:CSI15:1,2008-03-02T11:00:00Z,28.8332,-90.8320,22.65,11111222 
WAVCIS,ioos:station:WAVCIS:CSI15:1,2008-03-02T12:00:00Z,28.8332,-90.8320,21.14,11111222 
WAVCIS,ioos:station:WAVCIS:CSI15:1,2008-03-02T13:00:00Z,28.8332,-90.8320,21.52,11111222 
WAVCIS,ioos:station:WAVCIS:CSI15:1,2008-03-02T14:00:00Z,28.8332,-90.8320,21.58,11111222 
WAVCIS,ioos:station:WAVCIS:CSI15:1,2008-03-02T15:00:00Z,28.8332,-90.8320,21.66,11111222 
WAVCIS,ioos:station:WAVCIS:CSI15:1,2008-03-02T16:00:00Z,28.8332,-90.8320,22.04,11111222 
WAVCIS,ioos:station:WAVCIS:CSI15:1,2008-03-02T17:00:00Z,28.8332,-90.8320,21.65,11111222 
WAVCIS,ioos:station:WAVCIS:CSI15:1,2008-03-02T18:00:00Z,28.8332,-90.8320,21.71,11111222 
WAVCIS,ioos:station:WAVCIS:CSI15:1,2008-03-02T19:00:00Z,28.8332,-90.8320,21.82,11111222 
WAVCIS,ioos:station:WAVCIS:CSI15:1,2008-03-02T20:00:00Z,28.8332,-90.8320,21.65,11111222 
WAVCIS,ioos:station:WAVCIS:CSI15:1,2008-03-02T21:00:00Z,28.8332,-90.8320,21.96,11111222 
WAVCIS,ioos:station:WAVCIS:CSI15:1,2008-03-02T23:00:00Z,28.8332,-90.8320,21.94,11111222 
WAVCIS,ioos:station:WAVCIS:CSI15:1,2008-03-03T00:00:00Z,28.8332,-90.8320,21.39,11111222 
WAVCIS,ioos:station:WAVCIS:CSI15:1,2008-03-03T01:00:00Z,28.8332,-90.8320,21.37,11111222 
WAVCIS,ioos:station:WAVCIS:CSI15:1,2008-03-03T02:00:00Z,28.8332,-90.8320,21.72,11111222 
WAVCIS,ioos:station:WAVCIS:CSI15:1,2008-03-03T03:00:00Z,28.8332,-90.8320,21.98,11111222 
WAVCIS,ioos:station:WAVCIS:CSI15:1,2008-03-03T04:00:00Z,28.8332,-90.8320,23.29,11111222 
WAVCIS,ioos:station:WAVCIS:CSI15:1,2008-03-03T05:00:00Z,28.8332,-90.8320,24.02,11111222 
WAVCIS,ioos:station:WAVCIS:CSI15:1,2008-03-03T06:00:00Z,28.8332,-90.8320,22.84,11111222 
WAVCIS,ioos:station:WAVCIS:CSI15:1,2008-03-03T07:00:00Z,28.8332,-90.8320,22.17,11111222 
WAVCIS,ioos:station:WAVCIS:CSI15:1,2008-03-03T08:00:00Z,28.8332,-90.8320,21.81,11111222 
WAVCIS,ioos:station:WAVCIS:CSI15:1,2008-03-03T09:00:00Z,28.8332,-90.8320,22.15,11111222 
WAVCIS,ioos:station:WAVCIS:CSI15:1,2008-03-03T10:00:00Z,28.8332,-90.8320,24.13,11111222 
WAVCIS,ioos:station:WAVCIS:CSI15:1,2008-03-03T11:00:00Z,28.8332,-90.8320,24.33,11111222 
WAVCIS,ioos:station:WAVCIS:CSI15:1,2008-03-03T12:00:00Z,28.8332,-90.8320,22.26,11111222 
WAVCIS,ioos:station:WAVCIS:CSI15:1,2008-03-03T13:00:00Z,28.8332,-90.8320,23.13,11111222 
WAVCIS,ioos:station:WAVCIS:CSI15:1,2008-03-03T14:00:00Z,28.8332,-90.8320,23.24,11111222 
WAVCIS,ioos:station:WAVCIS:CSI15:1,2008-03-03T15:00:00Z,28.8332,-90.8320,23.43,11111222 
WAVCIS,ioos:station:WAVCIS:CSI15:1,2008-03-03T16:00:00Z,28.8332,-90.8320,23.67,11111222 
WAVCIS,ioos:station:WAVCIS:CSI15:1,2008-03-03T17:00:00Z,28.8332,-90.8320,23.74,11111222 
WAVCIS,ioos:station:WAVCIS:CSI15:1,2008-03-03T18:00:00Z,28.8332,-90.8320,23.76,11111222 
WAVCIS,ioos:station:WAVCIS:CSI15:1,2008-03-03T19:00:00Z,28.8332,-90.8320,23.8,11111222 
WAVCIS,ioos:station:WAVCIS:CSI15:1,2008-03-03T20:00:00Z,28.8332,-90.8320,23.72,11111222 
WAVCIS,ioos:station:WAVCIS:CSI15:1,2008-03-03T21:00:00Z,28.8332,-90.8320,24.01,11111222 
WAVCIS,ioos:station:WAVCIS:CSI15:1,2008-03-03T22:00:00Z,28.8332,-90.8320,23.71,11111222 
WAVCIS,ioos:station:WAVCIS:CSI15:1,2008-03-03T23:00:00Z,28.8332,-90.8320,23.75,11111222 
WAVCIS,ioos:station:WAVCIS:CSI15:1,2008-03-04T00:00:00Z,28.8332,-90.8320,23.75,11111222 
WAVCIS,ioos:station:WAVCIS:CSI15:1,2008-03-04T01:00:00Z,28.8332,-90.8320,23.76,11111222 
WAVCIS,ioos:station:WAVCIS:CSI15:1,2008-03-04T02:00:00Z,28.8332,-90.8320,23.66,11111222 
WAVCIS,ioos:station:WAVCIS:CSI15:1,2008-03-04T03:00:00Z,28.8332,-90.8320,23.6,11111222 
WAVCIS,ioos:station:WAVCIS:CSI15:1,2008-03-04T04:00:00Z,28.8332,-90.8320,23.26,11111222 
WAVCIS,ioos:station:WAVCIS:CSI15:1,2008-03-04T05:00:00Z,28.8332,-90.8320,18.22,11111222 
WAVCIS,ioos:station:WAVCIS:CSI15:1,2008-03-04T06:00:00Z,28.8332,-90.8320,18.45,11111222 
WAVCIS,ioos:station:WAVCIS:CSI15:1,2008-03-04T07:00:00Z,28.8332,-90.8320,16.81,11111222 
WAVCIS,ioos:station:WAVCIS:CSI15:1,2008-03-04T08:00:00Z,28.8332,-90.8320,14.78,11111222 
WAVCIS,ioos:station:WAVCIS:CSI15:1,2008-03-04T09:00:00Z,28.8332,-90.8320,14.14,11111222 
WAVCIS,ioos:station:WAVCIS:CSI15:1,2008-03-04T10:00:00Z,28.8332,-90.8320,14.14,11111222 
WAVCIS,ioos:station:WAVCIS:CSI15:1,2008-03-04T11:00:00Z,28.8332,-90.8320,13.26,11111222 
WAVCIS,ioos:station:WAVCIS:CSI15:1,2008-03-04T21:00:00Z,28.8332,-90.8320,12.44,11111222 
WAVCIS,ioos:station:WAVCIS:CSI15:1,2008-03-04T22:00:00Z,28.8332,-90.8320,12.87,11111222 
WAVCIS,ioos:station:WAVCIS:CSI15:1,2008-03-04T23:00:00Z,28.8332,-90.8320,13.43,11111222 
WAVCIS,ioos:station:WAVCIS:CSI15:1,2008-03-05T00:00:00Z,28.8332,-90.8320,13.87,11111222 
WAVCIS,ioos:station:WAVCIS:CSI15:1,2008-03-05T01:00:00Z,28.8332,-90.8320,14.32,11111222 
WAVCIS,ioos:station:WAVCIS:CSI15:1,2008-03-05T02:00:00Z,28.8332,-90.8320,14.68,11111222 
WAVCIS,ioos:station:WAVCIS:CSI15:1,2008-03-05T03:00:00Z,28.8332,-90.8320,14.8,11111222 
WAVCIS,ioos:station:WAVCIS:CSI15:1,2008-03-06T21:00:00Z,28.8332,-90.8320,17.87,11111222 
WAVCIS,ioos:station:WAVCIS:CSI15:1,2008-03-07T15:00:00Z,28.8332,-90.8320,13.87,11111222 
WAVCIS,ioos:station:WAVCIS:CSI15:1,2008-03-07T18:00:00Z,28.8332,-90.8320,14.05,11111222 
WAVCIS,ioos:station:WAVCIS:CSI15:1,2008-03-07T19:00:00Z,28.8332,-90.8320,13.7,11111222 
WAVCIS,ioos:station:WAVCIS:CSI15:1,2008-03-07T20:00:00Z,28.8332,-90.8320,14.2,11111222 
WAVCIS,ioos:station:WAVCIS:CSI15:1,2008-03-07T21:00:00Z,28.8332,-90.8320,13.83,11111222 
WAVCIS,ioos:station:WAVCIS:CSI15:1,2008-03-07T22:00:00Z,28.8332,-90.8320,12.35,11111222 
WAVCIS,ioos:station:WAVCIS:CSI15:1,2008-03-07T23:00:00Z,28.8332,-90.8320,11.78,11111222 
WAVCIS,ioos:station:WAVCIS:CSI15:1,2008-03-08T00:00:00Z,28.8332,-90.8320,11.26,11111222 
WAVCIS,ioos:station:WAVCIS:CSI15:1,2008-03-08T01:00:00Z,28.8332,-90.8320,10.62,11111222 
WAVCIS,ioos:station:WAVCIS:CSI15:1,2008-03-08T02:00:00Z,28.8332,-90.8320,10.15,11111222 
WAVCIS,ioos:station:WAVCIS:CSI15:1,2008-03-08T03:00:00Z,28.8332,-90.8320,9.38,11111222 
WAVCIS,ioos:station:WAVCIS:CSI15:1,2008-03-08T04:00:00Z,28.8332,-90.8320,8.86,11111222 
WAVCIS,ioos:station:WAVCIS:CSI15:1,2008-03-08T05:00:00Z,28.8332,-90.8320,8.17,11111222 
WAVCIS,ioos:station:WAVCIS:CSI15:1,2008-03-08T06:00:00Z,28.8332,-90.8320,8.03,11111222 
WAVCIS,ioos:station:WAVCIS:CSI15:1,2008-03-08T07:00:00Z,28.8332,-90.8320,8.22,11111222 
WAVCIS,ioos:station:WAVCIS:CSI15:1,2008-03-08T08:00:00Z,28.8332,-90.8320,8.54,11111222 
WAVCIS,ioos:station:WAVCIS:CSI15:1,2008-03-08T09:00:00Z,28.8332,-90.8320,8.13,11111222 
WAVCIS,ioos:station:WAVCIS:CSI15:1,2008-03-08T10:00:00Z,28.8332,-90.8320,8.26,11111222 
WAVCIS,ioos:station:WAVCIS:CSI15:1,2008-03-08T11:00:00Z,28.8332,-90.8320,8.38,11111222 
WAVCIS,ioos:station:WAVCIS:CSI15:1,2008-03-08T12:00:00Z,28.8332,-90.8320,8.4,11111222 
WAVCIS,ioos:station:WAVCIS:CSI15:1,2008-03-08T13:00:00Z,28.8332,-90.8320,8.82,11111222 
WAVCIS,ioos:station:WAVCIS:CSI15:1,2008-03-08T14:00:00Z,28.8332,-90.8320,10.27,11111222 
WAVCIS,ioos:station:WAVCIS:CSI15:1,2008-03-08T15:00:00Z,28.8332,-90.8320,10.9,11111222 
WAVCIS,ioos:station:WAVCIS:CSI15:1,2008-03-08T16:00:00Z,28.8332,-90.8320,10.01,11111222 
WAVCIS,ioos:station:WAVCIS:CSI15:1,2008-03-08T17:00:00Z,28.8332,-90.8320,10.35,11111222 
WAVCIS,ioos:station:WAVCIS:CSI15:1,2008-03-08T18:00:00Z,28.8332,-90.8320,11.05,11111222 
WAVCIS,ioos:station:WAVCIS:CSI15:1,2008-03-08T19:00:00Z,28.8332,-90.8320,12.39,11111222 
WAVCIS,ioos:station:WAVCIS:CSI15:1,2008-03-08T20:00:00Z,28.8332,-90.8320,12.53,11111222 
WAVCIS,ioos:station:WAVCIS:CSI15:1,2008-03-08T21:00:00Z,28.8332,-90.8320,13.35,11111222 
WAVCIS,ioos:station:WAVCIS:CSI15:1,2008-03-08T22:00:00Z,28.8332,-90.8320,14.18,11111222 
WAVCIS,ioos:station:WAVCIS:CSI15:1,2008-03-08T23:00:00Z,28.8332,-90.8320,15.05,11111222 
WAVCIS,ioos:station:WAVCIS:CSI15:1,2008-03-09T00:00:00Z,28.8332,-90.8320,15.01,11111222 
WAVCIS,ioos:station:WAVCIS:CSI15:1,2008-03-09T01:00:00Z,28.8332,-90.8320,14.66,11111222 
WAVCIS,ioos:station:WAVCIS:CSI15:1,2008-03-09T02:00:00Z,28.8332,-90.8320,15.05,11111222 
WAVCIS,ioos:station:WAVCIS:CSI15:1,2008-03-09T03:00:00Z,28.8332,-90.8320,15.45,11111222 
WAVCIS,ioos:station:WAVCIS:CSI15:1,2008-03-09T04:00:00Z,28.8332,-90.8320,15.36,11111222 
WAVCIS,ioos:station:WAVCIS:CSI15:1,2008-03-09T05:00:00Z,28.8332,-90.8320,15.59,11111222 
WAVCIS,ioos:station:WAVCIS:CSI15:1,2008-03-09T06:00:00Z,28.8332,-90.8320,15.81,11111222 
WAVCIS,ioos:station:WAVCIS:CSI15:1,2008-03-09T07:00:00Z,28.8332,-90.8320,15.93,11111222 
WAVCIS,ioos:station:WAVCIS:CSI15:1,2008-03-09T08:00:00Z,28.8332,-90.8320,15.69,11111222 
WAVCIS,ioos:station:WAVCIS:CSI15:1,2008-03-09T09:00:00Z,28.8332,-90.8320,15.63,11111222 
WAVCIS,ioos:station:WAVCIS:CSI15:1,2008-03-09T10:00:00Z,28.8332,-90.8320,16.64,11111222 
WAVCIS,ioos:station:WAVCIS:CSI15:1,2008-03-09T11:00:00Z,28.8332,-90.8320,17.91,11111222 
WAVCIS,ioos:station:WAVCIS:CSI15:1,2008-03-09T12:00:00Z,28.8332,-90.8320,15.35,11111222 
WAVCIS,ioos:station:WAVCIS:CSI15:1,2008-03-09T13:00:00Z,28.8332,-90.8320,16.23,11111222 
WAVCIS,ioos:station:WAVCIS:CSI15:1,2008-03-09T14:00:00Z,28.8332,-90.8320,17.07,11111222 
WAVCIS,ioos:station:WAVCIS:CSI15:1,2008-03-09T15:00:00Z,28.8332,-90.8320,17.45,11111222 
WAVCIS,ioos:station:WAVCIS:CSI15:1,2008-03-09T16:00:00Z,28.8332,-90.8320,17.77,11111222 
WAVCIS,ioos:station:WAVCIS:CSI15:1,2008-03-09T17:00:00Z,28.8332,-90.8320,17.73,11111222 
WAVCIS,ioos:station:WAVCIS:CSI15:1,2008-03-09T18:00:00Z,28.8332,-90.8320,17.81,11111222 
WAVCIS,ioos:station:WAVCIS:CSI15:1,2008-03-09T19:00:00Z,28.8332,-90.8320,18.02,11111222 
WAVCIS,ioos:station:WAVCIS:CSI15:1,2008-03-09T20:00:00Z,28.8332,-90.8320,18.28,11111222 
WAVCIS,ioos:station:WAVCIS:CSI15:1,2008-03-09T21:00:00Z,28.8332,-90.8320,18.71,11111222 
WAVCIS,ioos:station:WAVCIS:CSI15:1,2008-03-09T22:00:00Z,28.8332,-90.8320,19.1,11111222 
WAVCIS,ioos:station:WAVCIS:CSI15:1,2008-03-09T23:00:00Z,28.8332,-90.8320,19.06,11111222 
WAVCIS,ioos:station:WAVCIS:CSI15:1,2008-03-10T00:00:00Z,28.8332,-90.8320,19.13,11111222 
WAVCIS,ioos:station:WAVCIS:CSI15:1,2008-03-10T01:00:00Z,28.8332,-90.8320,18.92,11111222 
WAVCIS,ioos:station:WAVCIS:CSI15:1,2008-03-10T02:00:00Z,28.8332,-90.8320,18.94,11111222 
WAVCIS,ioos:station:WAVCIS:CSI15:1,2008-03-10T03:00:00Z,28.8332,-90.8320,19.06,11111222 
WAVCIS,ioos:station:WAVCIS:CSI15:1,2008-03-10T04:00:00Z,28.8332,-90.8320,19.12,11111222 
WAVCIS,ioos:station:WAVCIS:CSI15:1,2008-03-10T05:00:00Z,28.8332,-90.8320,18.75,11111222 
WAVCIS,ioos:station:WAVCIS:CSI15:1,2008-03-10T06:00:00Z,28.8332,-90.8320,19.67,11111222 
WAVCIS,ioos:station:WAVCIS:CSI15:1,2008-03-10T07:00:00Z,28.8332,-90.8320,19.7,11111222 
WAVCIS,ioos:station:WAVCIS:CSI15:1,2008-03-10T08:00:00Z,28.8332,-90.8320,20.44,11111222 
WAVCIS,ioos:station:WAVCIS:CSI15:1,2008-03-10T09:00:00Z,28.8332,-90.8320,23.02,11111222 
WAVCIS,ioos:station:WAVCIS:CSI15:1,2008-03-10T10:00:00Z,28.8332,-90.8320,22.6,11111222 
WAVCIS,ioos:station:WAVCIS:CSI15:1,2008-03-10T11:00:00Z,28.8332,-90.8320,20.2,11111222 
WAVCIS,ioos:station:WAVCIS:CSI15:1,2008-03-10T12:00:00Z,28.8332,-90.8320,20.12,11111222 
WAVCIS,ioos:station:WAVCIS:CSI15:1,2008-03-10T13:00:00Z,28.8332,-90.8320,20.46,11111222 
WAVCIS,ioos:station:WAVCIS:CSI15:1,2008-03-10T14:00:00Z,28.8332,-90.8320,20.55,11111222 
WAVCIS,ioos:station:WAVCIS:CSI15:1,2008-03-10T15:00:00Z,28.8332,-90.8320,20.39,11111222 
WAVCIS,ioos:station:WAVCIS:CSI15:1,2008-03-10T16:00:00Z,28.8332,-90.8320,20.48,11111222 
WAVCIS,ioos:station:WAVCIS:CSI15:1,2008-03-10T17:00:00Z,28.8332,-90.8320,20.61,11111222 
WAVCIS,ioos:station:WAVCIS:CSI15:1,2008-03-10T18:00:00Z,28.8332,-90.8320,20.63,11111222 
WAVCIS,ioos:station:WAVCIS:CSI15:1,2008-03-10T19:00:00Z,28.8332,-90.8320,20.72,11111222 
WAVCIS,ioos:station:WAVCIS:CSI15:1,2008-03-10T21:00:00Z,28.8332,-90.8320,20.89,11111222 
WAVCIS,ioos:station:WAVCIS:CSI15:1,2008-03-10T22:00:00Z,28.8332,-90.8320,20.76,11111222 
WAVCIS,ioos:station:WAVCIS:CSI15:1,2008-03-10T23:00:00Z,28.8332,-90.8320,20.59,11111222 
WAVCIS,ioos:station:WAVCIS:CSI15:1,2008-03-11T00:00:00Z,28.8332,-90.8320,20.63,11111222 
WAVCIS,ioos:station:WAVCIS:CSI15:1,2008-03-11T01:00:00Z,28.8332,-90.8320,20.83,11111222 
WAVCIS,ioos:station:WAVCIS:CSI15:1,2008-03-11T02:00:00Z,28.8332,-90.8320,20.57,11111222 
WAVCIS,ioos:station:WAVCIS:CSI15:1,2008-03-11T03:00:00Z,28.8332,-90.8320,20.77,11111222 
WAVCIS,ioos:station:WAVCIS:CSI15:1,2008-03-11T04:00:00Z,28.8332,-90.8320,20.75,11111222 
WAVCIS,ioos:station:WAVCIS:CSI15:1,2008-03-11T05:00:00Z,28.8332,-90.8320,20.67,11111222 
WAVCIS,ioos:station:WAVCIS:CSI15:1,2008-03-11T06:00:00Z,28.8332,-90.8320,22.45,11111222 
WAVCIS,ioos:station:WAVCIS:CSI15:1,2008-03-11T07:00:00Z,28.8332,-90.8320,19.7,11111222 
WAVCIS,ioos:station:WAVCIS:CSI15:1,2008-03-11T08:00:00Z,28.8332,-90.8320,18.45,11111222 
WAVCIS,ioos:station:WAVCIS:CSI15:1,2008-03-11T09:00:00Z,28.8332,-90.8320,18.27,11111222 
WAVCIS,ioos:station:WAVCIS:CSI15:1,2008-03-11T10:00:00Z,28.8332,-90.8320,18.74,11111222 
WAVCIS,ioos:station:WAVCIS:CSI15:1,2008-03-11T11:00:00Z,28.8332,-90.8320,19.5,11111222 
WAVCIS,ioos:station:WAVCIS:CSI15:1,2008-03-11T12:00:00Z,28.8332,-90.8320,20.04,11111222 
WAVCIS,ioos:station:WAVCIS:CSI15:1,2008-03-11T13:00:00Z,28.8332,-90.8320,18.59,11111222 
WAVCIS,ioos:station:WAVCIS:CSI15:1,2008-03-11T14:00:00Z,28.8332,-90.8320,17.83,11111222 
WAVCIS,ioos:station:WAVCIS:CSI15:1,2008-03-11T15:00:00Z,28.8332,-90.8320,17.35,11111222 
WAVCIS,ioos:station:WAVCIS:CSI15:1,2008-03-11T16:00:00Z,28.8332,-90.8320,17.07,11111222 
WAVCIS,ioos:station:WAVCIS:CSI15:1,2008-03-11T17:00:00Z,28.8332,-90.8320,17.29,11111222 
WAVCIS,ioos:station:WAVCIS:CSI15:1,2008-03-11T18:00:00Z,28.8332,-90.8320,17.82,11111222 
WAVCIS,ioos:station:WAVCIS:CSI15:1,2008-03-11T19:00:00Z,28.8332,-90.8320,17.63,11111222 
WAVCIS,ioos:station:WAVCIS:CSI15:1,2008-03-11T20:00:00Z,28.8332,-90.8320,18.07,11111222 
WAVCIS,ioos:station:WAVCIS:CSI15:1,2008-03-11T21:00:00Z,28.8332,-90.8320,18.23,11111222 
WAVCIS,ioos:station:WAVCIS:CSI15:1,2008-03-11T22:00:00Z,28.8332,-90.8320,18.73,11111222 
WAVCIS,ioos:station:WAVCIS:CSI15:1,2008-03-11T23:00:00Z,28.8332,-90.8320,18.77,11111222 
WAVCIS,ioos:station:WAVCIS:CSI15:1,2008-03-12T00:00:00Z,28.8332,-90.8320,18.84,11111222 
WAVCIS,ioos:station:WAVCIS:CSI15:1,2008-03-12T01:00:00Z,28.8332,-90.8320,19.03,11111222 
WAVCIS,ioos:station:WAVCIS:CSI15:1,2008-03-12T02:00:00Z,28.8332,-90.8320,18.99,11111222 
WAVCIS,ioos:station:WAVCIS:CSI15:1,2008-03-12T03:00:00Z,28.8332,-90.8320,18.92,11111222 
WAVCIS,ioos:station:WAVCIS:CSI15:1,2008-03-12T04:00:00Z,28.8332,-90.8320,18.72,11111222 
WAVCIS,ioos:station:WAVCIS:CSI15:1,2008-03-12T05:00:00Z,28.8332,-90.8320,18.75,11111222 
WAVCIS,ioos:station:WAVCIS:CSI15:1,2008-03-12T06:00:00Z,28.8332,-90.8320,19.93,11111222 
WAVCIS,ioos:station:WAVCIS:CSI15:1,2008-03-12T07:00:00Z,28.8332,-90.8320,18.81,11111222 
WAVCIS,ioos:station:WAVCIS:CSI15:1,2008-03-12T08:00:00Z,28.8332,-90.8320,17.97,11111222 
WAVCIS,ioos:station:WAVCIS:CSI15:1,2008-03-12T09:00:00Z,28.8332,-90.8320,17.58,11111222 
WAVCIS,ioos:station:WAVCIS:CSI15:1,2008-03-12T10:00:00Z,28.8332,-90.8320,17.36,11111222 
WAVCIS,ioos:station:WAVCIS:CSI15:1,2008-03-12T11:00:00Z,28.8332,-90.8320,17.38,11111222 
WAVCIS,ioos:station:WAVCIS:CSI15:1,2008-03-12T12:00:00Z,28.8332,-90.8320,17.12,11111222 
WAVCIS,ioos:station:WAVCIS:CSI15:1,2008-03-12T13:00:00Z,28.8332,-90.8320,17.08,11111222 
WAVCIS,ioos:station:WAVCIS:CSI15:1,2008-03-12T14:00:00Z,28.8332,-90.8320,17.34,11111222 
WAVCIS,ioos:station:WAVCIS:CSI15:1,2008-03-12T15:00:00Z,28.8332,-90.8320,17.31,11111222 
WAVCIS,ioos:station:WAVCIS:CSI15:1,2008-03-12T16:00:00Z,28.8332,-90.8320,17.26,11111222 
WAVCIS,ioos:station:WAVCIS:CSI15:1,2008-03-12T17:00:00Z,28.8332,-90.8320,17.45,11111222 
WAVCIS,ioos:station:WAVCIS:CSI15:1,2008-03-12T18:00:00Z,28.8332,-90.8320,17.81,11111222 
WAVCIS,ioos:station:WAVCIS:CSI15:1,2008-03-12T19:00:00Z,28.8332,-90.8320,18.37,11111222 
WAVCIS,ioos:station:WAVCIS:CSI15:1,2008-03-12T20:00:00Z,28.8332,-90.8320,19.95,11111222 
WAVCIS,ioos:station:WAVCIS:CSI15:1,2008-03-13T17:00:00Z,28.8332,-90.8320,20.05,11111222 
WAVCIS,ioos:station:WAVCIS:CSI15:1,2008-03-13T18:00:00Z,28.8332,-90.8320,20.1,11111222 
WAVCIS,ioos:station:WAVCIS:CSI15:1,2008-03-13T19:00:00Z,28.8332,-90.8320,20.91,11111222 
WAVCIS,ioos:station:WAVCIS:CSI15:1,2008-03-13T20:00:00Z,28.8332,-90.8320,21.26,11111222 
WAVCIS,ioos:station:WAVCIS:CSI15:1,2008-03-13T21:00:00Z,28.8332,-90.8320,21.61,11111222 
WAVCIS,ioos:station:WAVCIS:CSI15:1,2008-03-13T22:00:00Z,28.8332,-90.8320,21.84,11111222 
WAVCIS,ioos:station:WAVCIS:CSI15:1,2008-03-13T23:00:00Z,28.8332,-90.8320,21.97,11111222 
WAVCIS,ioos:station:WAVCIS:CSI15:1,2008-03-14T00:00:00Z,28.8332,-90.8320,22.67,11111222 
WAVCIS,ioos:station:WAVCIS:CSI15:1,2008-03-14T01:00:00Z,28.8332,-90.8320,24.07,11111222 
WAVCIS,ioos:station:WAVCIS:CSI15:1,2008-03-14T02:00:00Z,28.8332,-90.8320,21.2,11111222 
WAVCIS,ioos:station:WAVCIS:CSI15:1,2008-03-14T05:00:00Z,28.8332,-90.8320,22.43,11111222 
WAVCIS,ioos:station:WAVCIS:CSI15:1,2008-03-14T06:00:00Z,28.8332,-90.8320,22.28,11111222 
WAVCIS,ioos:station:WAVCIS:CSI15:1,2008-03-14T07:00:00Z,28.8332,-90.8320,21.37,11111222 
WAVCIS,ioos:station:WAVCIS:CSI15:1,2008-03-14T08:00:00Z,28.8332,-90.8320,21.01,11111222 
WAVCIS,ioos:station:WAVCIS:CSI15:1,2008-03-14T09:00:00Z,28.8332,-90.8320,21.03,11111222 
WAVCIS,ioos:station:WAVCIS:CSI15:1,2008-03-14T10:00:00Z,28.8332,-90.8320,21.25,11111222 
WAVCIS,ioos:station:WAVCIS:CSI15:1,2008-03-14T11:00:00Z,28.8332,-90.8320,21.56,11111222 
WAVCIS,ioos:station:WAVCIS:CSI15:1,2008-03-14T12:00:00Z,28.8332,-90.8320,22.07,11111222 
WAVCIS,ioos:station:WAVCIS:CSI15:1,2008-03-14T13:00:00Z,28.8332,-90.8320,22.29,11111222 
WAVCIS,ioos:station:WAVCIS:CSI15:1,2008-03-14T14:00:00Z,28.8332,-90.8320,22.24,11111222 
WAVCIS,ioos:station:WAVCIS:CSI15:1,2008-03-14T15:00:00Z,28.8332,-90.8320,22.23,11111222 
WAVCIS,ioos:station:WAVCIS:CSI15:1,2008-03-14T16:00:00Z,28.8332,-90.8320,22.55,11111222 
WAVCIS,ioos:station:WAVCIS:CSI15:1,2008-03-14T17:00:00Z,28.8332,-90.8320,22.64,11111222 
WAVCIS,ioos:station:WAVCIS:CSI15:1,2008-03-14T18:00:00Z,28.8332,-90.8320,22.63,11111222 
WAVCIS,ioos:station:WAVCIS:CSI15:1,2008-03-14T19:00:00Z,28.8332,-90.8320,22.44,11111222 
WAVCIS,ioos:station:WAVCIS:CSI15:1,2008-03-14T20:00:00Z,28.8332,-90.8320,22.65,11111222 
WAVCIS,ioos:station:WAVCIS:CSI15:1,2008-03-14T21:00:00Z,28.8332,-90.8320,22.57,11111222 
WAVCIS,ioos:station:WAVCIS:CSI15:1,2008-03-14T22:00:00Z,28.8332,-90.8320,22.8,11111222 
WAVCIS,ioos:station:WAVCIS:CSI15:1,2008-03-14T23:00:00Z,28.8332,-90.8320,22.66,11111222 
WAVCIS,ioos:station:WAVCIS:CSI15:1,2008-03-15T00:00:00Z,28.8332,-90.8320,21.49,11111222 
WAVCIS,ioos:station:WAVCIS:CSI15:1,2008-03-15T01:00:00Z,28.8332,-90.8320,22.66,11111222 
WAVCIS,ioos:station:WAVCIS:CSI15:1,2008-03-15T02:00:00Z,28.8332,-90.8320,22.35,11111222 
WAVCIS,ioos:station:WAVCIS:CSI15:1,2008-03-15T03:00:00Z,28.8332,-90.8320,22.29,11111222 
WAVCIS,ioos:station:WAVCIS:CSI15:1,2008-03-15T04:00:00Z,28.8332,-90.8320,22.36,11111222 
WAVCIS,ioos:station:WAVCIS:CSI15:1,2008-03-15T06:00:00Z,28.8332,-90.8320,22.66,11111222 
WAVCIS,ioos:station:WAVCIS:CSI15:1,2008-03-15T07:00:00Z,28.8332,-90.8320,22.68,11111222 
WAVCIS,ioos:station:WAVCIS:CSI15:1,2008-03-15T08:00:00Z,28.8332,-90.8320,21.69,11111222 
WAVCIS,ioos:station:WAVCIS:CSI15:1,2008-03-15T09:00:00Z,28.8332,-90.8320,22.91,11111222 
WAVCIS,ioos:station:WAVCIS:CSI15:1,2008-03-15T10:00:00Z,28.8332,-90.8320,23.16,11111222 
WAVCIS,ioos:station:WAVCIS:CSI15:1,2008-03-15T11:00:00Z,28.8332,-90.8320,23.09,11111222 
WAVCIS,ioos:station:WAVCIS:CSI15:1,2008-03-15T12:00:00Z,28.8332,-90.8320,23.02,11111222 
WAVCIS,ioos:station:WAVCIS:CSI15:1,2008-03-15T13:00:00Z,28.8332,-90.8320,23.1,11111222 
WAVCIS,ioos:station:WAVCIS:CSI15:1,2008-03-15T14:00:00Z,28.8332,-90.8320,23.03,11111222 
WAVCIS,ioos:station:WAVCIS:CSI15:1,2008-03-15T15:00:00Z,28.8332,-90.8320,23.09,11111222 
WAVCIS,ioos:station:WAVCIS:CSI15:1,2008-03-15T16:00:00Z,28.8332,-90.8320,22.7,11111222 
WAVCIS,ioos:station:WAVCIS:CSI15:1,2008-03-15T17:00:00Z,28.8332,-90.8320,23.01,11111222 
WAVCIS,ioos:station:WAVCIS:CSI15:1,2008-03-15T18:00:00Z,28.8332,-90.8320,23.19,11111222 
WAVCIS,ioos:station:WAVCIS:CSI15:1,2008-03-15T19:00:00Z,28.8332,-90.8320,23.05,11111222 
WAVCIS,ioos:station:WAVCIS:CSI15:1,2008-03-15T20:00:00Z,28.8332,-90.8320,23.03,11111222 
WAVCIS,ioos:station:WAVCIS:CSI15:1,2008-03-15T21:00:00Z,28.8332,-90.8320,23.03,11111222 
WAVCIS,ioos:station:WAVCIS:CSI15:1,2008-03-15T22:00:00Z,28.8332,-90.8320,23.15,11111222 
WAVCIS,ioos:station:WAVCIS:CSI15:1,2008-03-15T23:00:00Z,28.8332,-90.8320,23.03,11111222 
WAVCIS,ioos:station:WAVCIS:CSI15:1,2008-03-16T00:00:00Z,28.8332,-90.8320,22.7,11111222 
WAVCIS,ioos:station:WAVCIS:CSI15:1,2008-03-16T01:00:00Z,28.8332,-90.8320,22.42,11111222 
WAVCIS,ioos:station:WAVCIS:CSI15:1,2008-03-16T02:00:00Z,28.8332,-90.8320,22.21,11111222 